FO-29
1 24278U 96046B 13017.19550189 .00000011 00000-0 47211-4 0 282
2 24278 098.5765 095.8243 0350246 195.1835 163.8576 13.52995649810893
SO-33
1 25509U 98061B 13017.85875019 .00000186 00000-0 22892-4 0 4133
2 25509 031.4318 198.6696 0351871 281.9493 215.3343 14.28954472743370
RS-22
1 27939U 03042A 13017.58386271 .00000640 00000-0 12966-3 0 887
2 27939 097.7973 213.2883 0012726 309.1571 050.8493 14.64295457497258
VO-52
1 28650U 05017B 13016.97589570 .00001822 00000-0 22619-3 0 3197
2 28650 097.5782 043.2964 0027297 059.3538 301.0364 14.83518013416663
HO-68
1 36122U 09072B 13017.70795259 -.00000044 00000-0 00000 0 0 2012
2 36122 100.3306 078.4333 0007576 341.7456 018.3383 13.16301523148613
UO-11
1 14781U 84021B 13017.22001808 .00000544 00000-0 77514-4 0 788
2 14781 097.9247 080.5504 0009945 065.6148 294.6101 14.80730060551597
AO-16
1 20439U 90005D 13017.86810377 .00000108 00000-0 55890-4 0 6542
2 20439 098.4572 321.5066 0010013 239.7120 153.5112 14.32132127200722
LO-19
1 20442U 90005G 13017.85894058 .00000094 00000-0 50431-4 0 5867
2 20442 098.4252 323.7721 0011098 230.2806 163.4048 14.32345989200915
AO-27
1 22825U 93061C 13017.85640803 .00000091 00000-0 52835-4 0 2927
2 22825 098.6026 323.6054 0008449 017.6764 016.0689 14.29527670 7157
IO-26
1 22826U 93061D 13017.81574405 .00000106 00000-0 58327-4 0 475
2 22826 098.5967 323.8844 0008869 010.9168 022.6849 14.29807846 7270
GO-32
1 25397U 98043D 13016.89721577 .00000058 00000-0 43816-4 0 9750
2 25397 098.3927 351.4025 0001878 047.8336 312.3039 14.23317457754421
NO-44
1 26931U 01043C 13017.78375716 -.00000148 00000-0 -25094-4 0 2380
2 26931 067.0529 287.2222 0004698 264.9975 095.0575 14.29879698589923
SO-50
1 27607U 02058C 13017.29928679 .00000749 00000-0 13460-3 0 9695
2 27607 064.5590 003.4256 0065177 203.8587 155.9497 14.72736433541495
CO-55
1 27844U 03031E 13017.55528900 .00000230 00000-0 12592-3 0 5575
2 27844 098.7034 028.8172 0008927 328.5681 177.4831 14.21147811495330
CO-57
1 27848U 03031J 13017.59778847 .00000211 00000-0 11771-3 0 5061
2 27848 098.7117 028.2938 0008956 334.9391 172.3141 14.20882754495273
AO-51
1 28375U 04025K 13017.91735121 .00000129 00000-0 50987-4 0 4649
2 28375 098.1785 339.5779 0084026 110.2088 250.8178 14.41056034449699
CP3
1 31129U 07012N 13016.52500014 .00000715 00000-0 17091-3 0 3677
2 31129 097.8884 017.8267 0100655 178.8712 181.2723 14.53429836304965
CO-65
1 32785U 08021C 13017.17466326 .00001131 00000-0 14346-3 0 5277
2 32785 097.7737 078.8934 0015805 084.7089 338.5874 14.83537024255480
PRISM
1 33493U 09002B 13017.74202875 .00003510 00000-0 41576-3 0 4529
2 33493 098.1955 169.9941 0017790 324.4503 035.5526 14.85144829215588
SOHLA-1
1 33496U 09002E 13017.24767406 .00000389 00000-0 72844-4 0 9443
2 33496 098.1200 133.8248 0007832 086.0043 330.3736 14.70170046213693
SO-67
1 35870U 09049F 13017.78869067 .00005096 00000-0 20253-3 0 7081
2 35870 097.2089 051.9353 0003260 109.8829 011.5691 15.25728223185312
TISAT-1
1 36799U 10035E 13017.72646096 .00002455 00000-0 30998-3 0 7249
2 36799 098.0460 101.5375 0014478 192.6434 167.4426 14.82778177136279
STUDSAT
1 36801U 10035G 13016.74681463 .00008209 00000-0 92865-3 0 5704
2 36801 098.0548 102.4689 0011608 179.4522 180.6705 14.86672597136226
FO-69
1 37227U 0 13016.48957732 .00000612 00000-0 93834-4 0 00404
2 37227 071.9681 201.1781 0018476 280.3735 079.5362 14.77342940006503
FO-70
1 37380U 0 13016.12519132 .00000548 00000-0 85270-4 0 00394
2 37380 071.9715 202.8141 0019059 278.4604 081.4395 14.77085062006529
ALMASAT-1
1 38078U 12006B 13017.84537137 .00016413 00000-0 42287-3 0 9244
2 38078 069.4785 187.9469 0724358 338.2016 018.9629 14.18160185 47880
XATCOBEO
1 38082U 12006F 13017.82061895 .00039799 00000-0 85084-3 0 8580
2 38082 069.4787 176.4631 0648936 331.8391 024.8907 14.37856098 48199
NOAA-10
1 16969U 86073A 13017.14629532 .00000087 00000-0 52782-4 0 2142
2 16969 098.5618 048.1629 0011372 331.9594 059.2598 14.27609316370397
NOAA-11
1 19531U 88089A 13017.19968940 -.00000024 00000-0 96914-5 0 2084
2 19531 098.7207 103.7412 0010453 337.3121 075.2061 14.15000042254778
NOAA-12
1 21263U 91032A 13017.26572078 -.00000006 00000-0 16243-4 0 6868
2 21263 098.7117 043.7457 0013026 301.2971 058.6932 14.25542472127058
MET-3/5
1 21655U 91056A 13017.83411440 .00000229 00000-0 56333-3 0 5988
2 21655 082.5573 000.5244 0014220 142.3428 217.8693 13.17040793 30148
MET-2/21
1 22782U 93055A 13017.63783157 .00000072 00000-0 51437-4 0 6399
2 22782 082.5468 222.3552 0021261 270.9055 121.3391 13.83696842978821
OKEAN-4
1 23317U 94066A 13017.24804379 .00001105 00000-0 12881-3 0 1138
2 23317 082.5383 191.0146 0021852 009.2490 350.9129 14.84207386986556
NOAA-14
1 23455U 94089A 13017.39958532 .00000033 00000-0 40410-4 0 1671
2 23455 098.8128 104.0715 0010301 068.2258 292.0010 14.13890106931067
NOAA-15
1 25338U 98030A 13016.98351306 .00000208 00000-0 10718-3 0 5768
2 25338 098.7110 008.1121 0010239 203.5155 156.5552 14.25169754763300
RESURS
1 25394U 98043A 13017.11367069 .00000037 00000-0 33762-4 0 2844
2 25394 098.3444 000.3391 0001147 028.2948 029.9235 14.24317701754858
FENGYUN1
1 25730U 99025A 13016.50945602 .00002265 00000-0 13039-2 0 7861
2 25730 098.8657 338.0389 0022622 108.8101 011.2302 14.10057656704666
OKEAN-0
1 25860U 99039A 13017.86715157 .00000506 00000-0 83621-4 0 8447
2 25860 097.9700 342.5289 0000726 114.6473 278.9533 14.74457169726201
NOAA-16
1 26536U 00055A 13016.98814906 .00000152 00000-0 10634-3 0 556
2 26536 099.0651 068.1001 0010245 198.2450 161.8370 14.12829326635223
NOAA-17
1 27453U 02032A 13017.18668993 .00000028 00000-0 29552-4 0 9896
2 27453 098.3206 039.2234 0010714 247.5919 112.4146 14.24531564549220
NOAA-18
1 28654U 05018A 13017.10914237 .00000187 00000-0 12758-3 0 4715
2 28654 099.0783 343.3182 0013581 274.0800 085.8828 14.11759293394744
NOAA-19
1 33591U 09005A 13017.02341933 .00000464 00000-0 28004-3 0 6563
2 33591 098.8893 320.4004 0014639 134.7778 225.4586 14.11448512203177
HUBBLE
1 20580U 90037B 13017.82314684 .00001692 00000-0 10975-3 0 1560
2 20580 028.4685 178.2267 0003720 185.7028 174.3522 15.03218975 47046
ISS
1 25544U 98067A 13017.83619478 .00068784 00000-0 11189-2 0 455
2 25544 051.6476 135.2242 0013593 171.0898 329.3495 15.51935117811356
CO-58
1 28895U 05043F 13017.61757936 .00000729 00000-0 15765-3 0 3821
2 28895 097.8852 240.1352 0017477 192.9153 167.1607 14.60936345384965
FALCON
1 30776U 07006E 13017.18997375 .00005241 00000-0 32371-3 0 5309
2 30776 035.4322 047.9898 0000847 115.3700 308.3274 15.09380650322589
MAST
1 31126U 07012K 13017.54523025 .00000437 00000-0 10704-3 0 6605
2 31126 097.8747 022.1325 0093674 161.9045 198.5515 14.54410889305429
CAPE1
1 31130U 07012P 13016.51575993 .00000635 00000-0 15344-3 0 6714
2 31130 097.8871 017.4817 0100928 179.7228 180.4029 14.53272980304758
COMPASS
1 32787U 08021E 13017.72034311 .00002517 00000-0 30133-3 0 5209
2 32787 097.7741 080.0990 0016320 080.4176 065.9701 14.84907850255633
AAUSAT2
1 32788U 08021F 13017.14892140 .00002477 00000-0 29379-3 0 5102
2 32788 097.7746 080.0565 0015813 082.1472 330.5652 14.85310468255585
DO-64
1 32789U 08021G 13017.76315278 .00003830 00000-0 42788-3 0 5331
2 32789 097.7883 083.6148 0015326 075.4362 072.5900 14.87460740255755
CO-66
1 32791U 08021J 13017.73829295 .00001471 00000-0 18190-3 0 5081
2 32791 097.7743 079.6583 0016678 081.2496 065.9289 14.84161596255553
